Regional Weather Roundup
Issued by NWS

Home | Current Version | Previous Version | Text Only | Print | Product List | Glossary Off
Versions: 1 2 3 4 5 6 7 8 9 10 11 12 13 14 15 16 17 18 19 20 21 22 23 24 25 26 27 28 29 30 31 32 33 34 35 36 37 38 39 40 41 42 43 44 45 46 47 48 49 50

145
ASUS43 KLOT 110307
RWRIL

ILLINOIS REGIONAL WEATHER ROUNDUP
NATIONAL WEATHER SERVICE CHICAGO/ROMEOVILLE IL
900 PM CST SAT DEC 10 2016

NOTE: "FAIR" INDICATES FEW OR NO CLOUDS BELOW 12,000 FEET WITH NO
SIGNIFICANT WEATHER AND/OR OBSTRUCTIONS TO VISIBILITY.

* THESE STATIONS ARE NOT UNDER NWS QUALITY CONTROL. THEY ALSO MAY NOT
  REPORT WEATHER SUCH AS PRECIPITATION OR FOG.

ILZ001-002-007-009-015-016-024-110400-
NORTHWEST ILLINOIS

CITY           SKY/WX    TMP DP  RH WIND       PRES   REMARKS
MOLINE         CLOUDY    24  19  81 E12       30.22F WCI  13
STERLING*      FLURRIES  23  20  88 SE10      30.26F WCI  12
SAVANNA*       CLOUDY    23  19  86 SE10      30.24F WCI  12
$$

ILZ003-004-008-010-011-017-018-110400-
NORTH CENTRAL ILLINOIS

CITY           SKY/WX    TMP DP  RH WIND       PRES   REMARKS
ROCKFORD       LGT SNOW  22  19  89 SE9       30.30F FOG     WCI  12
FREEPORT*      LGT SNOW  21  19  91 E8        30.27F WCI  11
ROCHELLE*      FLURRIES  22  20  92 SE12      30.28F WCI  11
DE KALB*       LGT SNOW  22  20  93 SE10      30.29F WCI  11
$$

ILZ005-006-012>014-019>023-110400-
NORTHEAST ILLINOIS

CITY           SKY/WX    TMP DP  RH WIND       PRES   REMARKS
CHICAGO-OHARE  LGT SNOW  22  19  89 SE9       30.31F FOG     WCI  12
CHICAGO-MIDWAY LGT SNOW  23  18  81 SE7       30.33F FOG     WCI  15
AURORA         LGT SNOW  23  20  88 SE10      30.31F FOG     WCI  12
LANSING*       LGT SNOW  23  22  98 SE5       30.34F WCI  16
JOLIET*        LGT SNOW  24  23  93 SE7       30.34S WCI  16
WAUKEGAN       LGT SNOW  21  19  92 S3        30.32F FOG
DUPAGE AIRPORT LGT SNOW  22  18  85 SE7       30.30F FOG     WCI  13
KANKAKEE*      LGT SNOW  24  22  91 SE7       30.35F WCI  16
WHEELING       LGT SNOW  22  19  89 SE7       30.33F FOG     WCI  13
MORRIS*        LGT SNOW  24  22  92 SE8       30.31F WCI  15
ROMEOVILLE*    LGT SNOW  22  22 100 SE7       30.33S WCI  14
NORTHERLY ISL    N/A     22  20  92 S6          N/A  WCI  15
$$

LMZ740>746-110400-
SOUTHERN LAKE MICHIGAN

STATION/POSITION SKY/WX   TEMP    WIND        PRES    VSBY  WAVE
                          AIR SEA DIR/SP/G                  HT/PER
                          (F)     (DEG/KT/KT) (MB)    (MI)  (FT/S)
BURNHAM HARBOR             22     160/  6/ 10   N/A
CALUMET HARBOR             22     140/  4/  7 1026.8F
BURNS HARBOR               23     170/  5/ 10 1028.4F
$$

ILZ025>027-034>036-040-047-049-050-058-095>099-110400-
WEST-CENTRAL ILLINOIS

CITY           SKY/WX    TMP DP  RH WIND       PRES   REMARKS
QUINCY         CLOUDY    31  19  61 SE10      30.17F WCI  22
GALESBURG*     CLOUDY    24  21  87 E8        30.20F WCI  16
MACOMB*        CLOUDY    29  21  73 SE15      30.22F WCI  18
JACKSONVILLE*  CLOUDY    31  19  60 SE12      30.22F WCI  22
PITTSFIELD*    CLOUDY    32  22  66 SE10      30.20F WCI  24
$$

ILZ028>032-037-038-041>044-048-051>054-059>061-110400-
CENTRAL ILLINOIS

CITY           SKY/WX    TMP DP  RH WIND       PRES   REMARKS
PONTIAC        LGT SNOW  26  25  97 SE12      30.32F WCI  15
BLOOMINGTON    LGT SNOW  24  22  91 SE16      30.28F FOG     WCI  11
DECATUR        CLOUDY    28  19  69 SE10      30.30F WCI  19
PEORIA         CLOUDY    27  20  75 SE8       30.25F WCI  19
LACON*         CLOUDY    25  21  87 SE9G16    30.26F WCI  15
LINCOLN*       CLOUDY    30  22  72 SE14      30.27F WCI  19
SPRINGFIELD    CLOUDY    32  20  61 SE13G23   30.25F WCI  22
TAYLORVILLE    CLOUDY    30  20  67 SE10G16   30.27F WCI  21
$$

ILZ033-039-045-046-055>057-062-063-110400-
EAST-CENTRAL ILLINOIS

CITY           SKY/WX    TMP DP  RH WIND       PRES   REMARKS
CHAMPAIGN      LGT SNOW  26  20  77 SE12      30.33F WCI  16
RANTOUL*       LGT SNOW  28  23  82 S12       30.33S WCI  18
MATTOON        CLOUDY    28  17  63 SE12      30.30F WCI  18
PARIS*         CLOUDY    28  21  76 SE8       30.35F WCI  19
$$

ILZ079-100>102-110400-
SOUTHWEST ILLINOIS

CITY           SKY/WX    TMP DP  RH WIND       PRES   REMARKS
ALTON          CLOUDY    32  21  64 SE14      30.24F WCI  22
BELLEVILLE     CLOUDY    34  21  59 SE13      30.27F WCI  25
CAHOKIA*       CLOUDY    35  20  54 SE10G20   30.25F WCI  27
SPARTA*        CLOUDY    33  20  60 SE6       30.30F WCI  27
$$

ILZ064>066-069>071-074>076-080>082-084>086-088>090-092>094-110400-
SOUTH-CENTRAL ILLINOIS

CITY           SKY/WX    TMP DP  RH WIND       PRES   REMARKS
CARBONDALE     CLOUDY    35  19  52 S7        30.32F WCI  29
CAIRO*         CLOUDY    37  20  51 S6        30.35S WCI  32
EFFINGHAM*     CLOUDY    31  22  69 SE10      30.33F WCI  22
MARION         CLOUDY    36  18  48 S7        30.33F WCI  30
CENTRALIA*     CLOUDY    33  22  63 SE7       30.31F WCI  27
SALEM*         CLOUDY    33  20  59 SE7       30.31F WCI  27
METROPOLIS*    CLOUDY    37  16  43 S5        30.35S WCI  33
$$

ILZ067-068-072-073-078-083-087-091-110400-
SOUTHEAST ILLINOIS

CITY           SKY/WX    TMP DP  RH WIND       PRES   REMARKS
LAWRENCEVILLE  CLOUDY    31  19  61 SE9       30.35F WCI  23
FLORA*         CLOUDY    32  22  65 SE9       30.32F WCI  24
FAIRFIELD*     CLOUDY    32  21  64 SE3       30.33F
HARRISBURG*    CLOUDY    33  25  72 CALM      30.35R
ROBINSON*      CLOUDY    29  20  70 SE7       30.36F WCI  22
CARMI*         CLOUDY    32  22  67 SE9       30.33F WCI  24
$$

ABBREVIATIONS USED IN REMARKS
   TC - TEMPERATURE IN CELSIUS
  WCI - WIND CHILL INDEX
   HX - HEAT INDEX
  VSB - VISIBILITY
$$





USA.gov is the U.S. government's official web portal to all federal, state and local government web resources and services.